Orbital Elements at Epoch 2459200.5 (2020-Dec-17.0) TDB
Reference: JPL 36 (heliocentric ecliptic J2000)
Element | Value | Uncertainty (1-sigma) | Units |
e | .08414857896832917 | 1.9407e-08 | |
a | 2.963949862760492 | 1.2217e-08 | au |
q | 2.714537693675822 | 6.0905e-08 | au |
i | 2.115050321663738 | 1.3939e-06 | deg |
node | 162.5963176065701 | 3.6687e-05 | deg |
peri | 152.1034583745013 | 3.1621e-05 | deg |
M | 296.6098472100716 | 1.2503e-05 | deg |
tp | 2459528.688987559411 (2021-Nov-10.18898756) | 6.5069e-05 | TDB |
period | 1863.823170026493 5.10 | 1.1524e-05 3.155e-08 | d yr |
n | .193151370682275 | 1.1943e-09 | deg/d |
Q | 3.213362031845162 | 1.3245e-08 | au |
|
| | Orbit Determination Parameters
Additional Information
|